This demonstration page uses our WeatherBlox Daily Observations layout. Learn more.

Left ArrowRight Arrow

Hourly Observations for May 15, 2020

Temp ( °F °C ) Dew Point ( °F °C ) Humidity (%) Winds ( mph kmh ) Pressure ( in mb ) Visibility ( mi km ) Precip ( " mm )
12:09 am 00:09 Mostly Clear with Mist and Fog 54 12.2 52 11.1 93 93 NNW 6 9 29.89 1012 6 9.65604 0 0
12:19 am 00:19 Mostly Clear with Mist and Fog 53 11.7 51 10.6 93 93 N 8 13 29.89 1012 2.5 4.02335 0 0
12:26 am 00:26 Clear with Mist and Fog 53 11.7 52 11.1 96 96 N 8 13 29.89 1012 1.5 2.41401 0 0
12:31 am 00:31 Clear with Mist and Fog 53 11.7 51 10.6 93 93 N 8 13 29.89 1012 3 4.82802 0 0
12:54 am 00:54 Clear with Mist and Fog 52 11.1 50 10 93 93 N 6 9 29.87 1012 5 8.0467 0 0
12:58 am 00:58 Clear with Mist and Fog 51 10.6 50 10 96 96 N 7 11 29.89 1012 1.5 2.41401 0 0
1:00 am 01:00 Mostly Cloudy with Mist and Fog 51 10.6 49 9.4 92 92 N 7 11 29.88 1012 0.75 1.207005 0 0
1:12 am 01:12 Clear with Mist and Fog 51 10.6 49 9.4 92 92 N 6 9 29.88 1012 2 3.21868 0 0
1:20 am 01:20 Clear 53 11.7 51 10.6 93 93 NNW 7 11 29.87 1012 8 12.87472 0 0
1:54 am 01:54 Clear 54 12.2 50 10 87 87 NNW 8 13 29.86 1011 10 16.0934 0 0
2:54 am 02:54 Clear 53 11.7 47 8.3 80 80 NNW 8 13 29.87 1012 10 16.0934 0 0
3:54 am 03:54 Clear 52 11.1 46 7.8 80 80 Calm 29.91 1013 10 16.0934 0 0
4:54 am 04:54 Clear 49 9.4 44 6.7 83 83 N 10 17 29.88 1012 10 16.0934 0 0
5:54 am 05:54 Clear 52 11.1 45 7.2 77 77 NNW 5 7 29.95 1014 10 16.0934 0 0
6:54 am 06:54 Sunny 52 11.1 46 7.8 80 80 N 8 13 29.97 1015 10 16.0934 0 0
7:54 am 07:54 Sunny 56 13.3 46 7.8 70 70 N 6 9 29.99 1016 10 16.0934 0 0
8:54 am 08:54 Partly Cloudy 58 14.4 46 7.8 65 65 VRB 5 7 30.01 1016 10 16.0934 0 0
9:54 am 09:54 Sunny 62 16.7 45 7.2 54 54 E 10 17 30.02 1017 10 16.0934 0 0
10:54 am 10:54 Sunny 65 18.3 46 7.8 51 51 E 13 20 30.02 1017 10 16.0934 0 0
11:54 am 11:54 Sunny 68 20 47 8.3 47 47 E 9 15 30.01 1016 10 16.0934 0 0
12:54 pm 12:54 Sunny 72 22.2 48 8.9 43 43 E 9 15 30 1016 10 16.0934 0 0
1:54 pm 13:54 Sunny 73 22.8 46 7.8 38 38 ESE 9 15 29.98 1015 10 16.0934 0 0
2:54 pm 14:54 Sunny 74 23.3 46 7.8 37 37 ENE 7 11 29.95 1014 10 16.0934 0 0
3:54 pm 15:54 Sunny 75 23.9 46 7.8 36 36 ESE 7 11 29.94 1014 10 16.0934 0 0
4:54 pm 16:54 Sunny 76 24.4 46 7.8 35 35 undefined N/A 29.94 1014 10 16.0934 0 0
5:54 pm 17:54 Sunny 75 23.9 47 8.3 37 37 E 8 13 29.93 1014 10 16.0934 0 0
6:54 pm 18:54 Sunny 74 23.3 46 7.8 37 37 ESE 8 13 29.93 1014 10 16.0934 0 0
7:54 pm 19:54 Sunny 70 21.1 47 8.3 44 44 ESE 8 13 29.93 1013 10 16.0934 0 0
8:54 pm 20:54 Clear 67 19.4 46 7.8 47 47 ESE 5 7 29.91 1013 10 16.0934 0 0
9:54 pm 21:54 Clear 65 18.3 46 7.8 51 51 E 5 7 29.94 1014 10 16.0934 0 0
10:54 pm 22:54 Clear 62 16.7 46 7.8 56 56 E 3 6 29.96 1015 10 16.0934 0 0
11:54 pm 23:54 Clear with Light Rain 62 16.7 46 7.8 56 56 Calm 29.96 1014 10 16.0934 0.001 0.001

Powered by AerisWeather